| time (UTC) | temp C | wind direction | speed KPH | gust KPH | rain 1hr cm | rain 24hr cm | rain mn cm | humidity % | barometer mb |
| 20260504050427 | 15 | 174 | 0.0 | 0.0 | 0.00 | 0.00 | 0.00 | 81 | 1020.4 |
| 20260504045937 | 15 | 144 | 0.0 | 0.0 | 0.00 | 0.00 | 0.00 | 100 | 1020.5 |
| 20260504045427 | 14 | 211 | 0.0 | 0.0 | 0.00 | 0.00 | 0.00 | 100 | 1020.5 |
| 20260504044933 | 13 | 305 | 0.0 | 0.0 | 0.00 | 0.00 | 0.00 | 100 | 1020.3 |
| 20260504044422 | 13 | 306 | 0.0 | 0.0 | 0.00 | 0.00 | 0.00 | 100 | 1020.3 |
| 20260504043937 | 13 | 305 | 0.0 | 0.0 | 0.00 | 0.00 | 0.00 | 100 | 1020.2 |
| 20260504043433 | 12 | 300 | 0.0 | 0.0 | 0.00 | 0.00 | 0.00 | 100 | 1020.1 |
| 20260504042924 | 12 | 303 | 0.0 | 0.0 | 0.00 | 0.00 | 0.00 | 100 | 1020.2 |
| 20260504042435 | 12 | 309 | 0.0 | 0.0 | 0.00 | 0.00 | 0.00 | 100 | 1020.2 |
| 20260504041942 | 12 | 307 | 0.0 | 0.0 | 0.00 | 0.00 | 0.00 | 100 | 1020.0 |
| 20260504041436 | 12 | 310 | 1.6 | 0.0 | 0.00 | 0.00 | 0.00 | 100 | 1020.1 |
| 20260504040943 | 12 | 309 | 1.6 | 0.0 | 0.00 | 0.00 | 0.00 | 86 | 1020.1 |
| 20260504040434 | 12 | 308 | 1.6 | 0.0 | 0.00 | 0.00 | 0.00 | 56 | 1020.0 |
| 20260504035941 | 12 | 301 | 0.0 | 0.0 | 0.00 | 0.00 | 0.00 | 100 | 1020.1 |
| 20260504035435 | 13 | 305 | 0.0 | 0.0 | 0.00 | 0.00 | 0.00 | 100 | 1019.9 |
| 20260504034935 | 13 | 305 | 0.0 | 0.0 | 0.00 | 0.00 | 0.00 | 30 | 1019.9 |
| 20260504034431 | 13 | 302 | 0.0 | 0.0 | 0.00 | 0.00 | 0.00 | 100 | 1019.9 |
| 20260504033940 | 13 | 302 | 0.0 | 0.0 | 0.00 | 0.00 | 0.00 | 100 | 1019.9 |
| 20260504033434 | 13 | 306 | 0.0 | 0.0 | 0.00 | 0.00 | 0.00 | 100 | 1019.9 |
| 20260504032927 | 13 | 306 | 0.0 | 0.0 | 0.00 | 0.00 | 0.00 | 100 | 1019.9 |
| 20260504032435 | 13 | 308 | 0.0 | 0.0 | 0.00 | 0.00 | 0.00 | 100 | 1019.9 |
| 20260504031948 | 13 | 305 | 0.0 | 0.0 | 0.00 | 0.00 | 0.00 | 100 | 1019.9 |
| 20260504031440 | 13 | 305 | 0.0 | 0.0 | 0.00 | 0.00 | 0.00 | 100 | 1019.7 |
| 20260504030947 | 13 | 304 | 0.0 | 0.0 | 0.00 | 0.00 | 0.00 | 100 | 1019.7 |
| 20260504030425 | 13 | 310 | 0.0 | 0.0 | 0.00 | 0.00 | 0.00 | 85 | 1019.8 |
| 20260504025935 | 13 | 304 | 0.0 | 0.0 | 0.00 | 0.00 | 0.00 | 71 | 1019.8 |
| 20260504025432 | 13 | 311 | 1.6 | 0.0 | 0.00 | 0.00 | 0.00 | 100 | 1019.8 |
| 20260504024949 | 13 | 302 | 1.6 | 0.0 | 0.00 | 0.00 | 0.00 | 63 | 1019.7 |
| 20260504024440 | 13 | 303 | 1.6 | 0.0 | 0.00 | 0.00 | 0.00 | 73 | 1019.8 |
| 20260504023927 | 14 | 307 | 3.2 | 0.0 | 0.00 | 0.00 | 0.00 | 100 | 1019.9 |
| 20260504023440 | 13 | 302 | 0.0 | 0.0 | 0.00 | 0.00 | 0.00 | 100 | 1019.9 |
| 20260504022935 | 13 | 307 | 0.0 | 0.0 | 0.00 | 0.00 | 0.00 | 99 | 1020.0 |
| 20260504022440 | 13 | 306 | 0.0 | 0.0 | 0.00 | 0.00 | 0.00 | 96 | 1020.0 |
| 20260504021936 | 13 | 306 | 0.0 | 0.0 | 0.00 | 0.00 | 0.00 | 82 | 1019.9 |
| 20260504021455 | 13 | 302 | 0.0 | 0.0 | 0.00 | 0.00 | 0.00 | 78 | 1020.1 |
| 20260504021007 | 13 | 303 | 0.0 | 0.0 | 0.00 | 0.00 | 0.00 | 55 | 1019.9 |
| 20260504020430 | 13 | 302 | 0.0 | 0.0 | 0.00 | 0.00 | 0.00 | 100 | 1020.1 |
| 20260504015928 | 13 | 303 | 0.0 | 0.0 | 0.00 | 0.00 | 0.00 | 100 | 1019.9 |
| 20260504015437 | 13 | 302 | 0.0 | 0.0 | 0.00 | 0.00 | 0.00 | 100 | 1020.0 |
| 20260504014933 | 13 | 305 | 0.0 | 0.0 | 0.00 | 0.00 | 0.00 | 100 | 1019.8 |
| 20260504014432 | 13 | 304 | 0.0 | 0.0 | 0.00 | 0.00 | 0.00 | 100 | 1019.9 |
| 20260504013937 | 13 | 301 | 0.0 | 0.0 | 0.00 | 0.00 | 0.00 | 100 | 1019.8 |
| 20260504013437 | 13 | 306 | 1.6 | 0.0 | 0.00 | 0.00 | 0.00 | 100 | 1019.7 |
| 20260504012952 | 13 | 302 | 1.6 | 0.0 | 0.00 | 0.00 | 0.00 | 100 | 1019.8 |
| 20260504012439 | 13 | 305 | 3.2 | 0.0 | 0.00 | 0.00 | 0.00 | 93 | 1019.9 |
| 20260504011936 | 13 | 299 | 3.2 | 0.0 | 0.00 | 0.00 | 0.00 | 85 | 1019.8 |
| 20260504011451 | 14 | 302 | 0.0 | 0.0 | 0.00 | 0.00 | 0.00 | 92 | 1019.9 |
| 20260504011006 | 14 | 300 | 3.2 | 0.0 | 0.00 | 0.00 | 0.00 | 62 | 1019.8 |
| 20260504010448 | 14 | 297 | 1.6 | 0.0 | 0.00 | 0.00 | 0.00 | 30 | 1019.8 |
| 20260504005928 | 15 | 300 | 3.2 | 0.0 | 0.00 | 0.00 | 0.00 | 28 | 1019.8 |
| 20260504005457 | 15 | 299 | 1.6 | 0.0 | 0.00 | 0.00 | 0.00 | 30 | 1019.9 |
| 20260504004940 | 15 | 302 | 3.2 | 0.0 | 0.00 | 0.00 | 0.00 | 24 | 1019.9 |
| 20260504004429 | 15 | 296 | 3.2 | 0.0 | 0.00 | 0.00 | 0.00 | 30 | 1019.9 |
| 20260504003950 | 15 | 296 | 0.0 | 0.0 | 0.00 | 0.00 | 0.00 | 65 | 1019.9 |
| 20260504003436 | 15 | 298 | 0.0 | 0.0 | 0.00 | 0.00 | 0.00 | 97 | 1019.9 |
| 20260504002924 | 15 | 304 | 0.0 | 0.0 | 0.00 | 0.00 | 0.00 | 83 | 1019.9 |
| 20260504002429 | 15 | 298 | 0.0 | 0.0 | 0.00 | 0.00 | 0.00 | 51 | 1019.9 |
| 20260504001936 | 15 | 303 | 0.0 | 0.0 | 0.00 | 0.00 | 0.00 | 32 | 1019.9 |
| 20260504001502 | 15 | 302 | 0.0 | 0.0 | 0.00 | 0.00 | 0.00 | 29 | 1019.9 |
| 20260504000946 | 15 | 302 | 0.0 | 0.0 | 0.00 | 0.00 | 0.00 | 22 | 1019.9 |
| 20260504000426 | 15 | 302 | 0.0 | 0.0 | 0.00 | 0.00 | 0.00 | 14 | 1020.0 |
| 20260503235934 | 15 | 298 | 0.0 | 0.0 | 0.00 | 0.00 | 0.00 | 3 | 1019.9 |
| 20260503235437 | 15 | 295 | 3.2 | 0.0 | 0.00 | 0.00 | 0.00 | 100 | 1019.9 |
| 20260503234945 | 16 | 302 | 3.2 | 0.0 | 0.00 | 0.00 | 0.00 | 100 | 1020.1 |
| 20260503234434 | 16 | 240 | 0.0 | 0.0 | 0.00 | 0.00 | 0.00 | 1 | 1020.0 |
| 20260503233948 | 16 | 207 | 0.0 | 0.0 | 0.00 | 0.00 | 0.00 | 11 | 1020.1 |
| 20260503233440 | 16 | 212 | 1.6 | 0.0 | 0.00 | 0.00 | 0.00 | 9 | 1020.2 |
| 20260503232943 | 16 | 213 | 3.2 | 0.0 | 0.00 | 0.00 | 0.00 | 11 | 1020.0 |
| 20260503232424 | 16 | 217 | 0.0 | 0.0 | 0.00 | 0.00 | 0.00 | 14 | 1019.9 |
| 20260503231941 | 16 | 209 | 4.8 | 0.0 | 0.00 | 0.00 | 0.00 | 15 | 1020.0 |
| 20260503231455 | 16 | 221 | 3.2 | 0.0 | 0.00 | 0.00 | 0.00 | 16 | 1019.9 |
| 20260503230947 | 16 | 202 | 4.8 | 0.0 | 0.00 | 0.00 | 0.00 | 16 | 1020.1 |
| 20260503230439 | 16 | 223 | 11.3 | 0.0 | 0.00 | 0.00 | 0.00 | 17 | 1020.0 |
| 20260503225929 | 16 | 200 | 8.0 | 0.0 | 0.00 | 0.00 | 0.00 | 18 | 1020.1 |
| 20260503225501 | 17 | 212 | 3.2 | 0.0 | 0.00 | 0.00 | 0.00 | 18 | 1020.2 |
| 20260503224956 | 16 | 199 | 8.0 | 0.0 | 0.00 | 0.00 | 0.00 | 14 | 1020.2 |
| 20260503224427 | 17 | 205 | 6.4 | 0.0 | 0.00 | 0.00 | 0.00 | 13 | 1020.2 |
| 20260503223942 | 16 | 198 | 6.4 | 0.0 | 0.00 | 0.00 | 0.00 | 15 | 1020.2 |
| 20260503223436 | 16 | 189 | 8.0 | 0.0 | 0.00 | 0.00 | 0.00 | 15 | 1020.1 |
| 20260503222926 | 17 | 193 | 9.7 | 0.0 | 0.00 | 0.00 | 0.00 | 12 | 1020.2 |
| 20260503222439 | 17 | 181 | 11.3 | 0.0 | 0.00 | 0.00 | 0.00 | 9 | 1020.1 |
| 20260503221936 | 17 | 180 | 11.3 | 0.0 | 0.00 | 0.00 | 0.00 | 5 | 1020.1 |
| 20260503221436 | 17 | 177 | 8.0 | 0.0 | 0.00 | 0.00 | 0.00 | 1 | 1020.1 |
| 20260503220945 | 17 | 162 | 6.4 | 0.0 | 0.00 | 0.00 | 0.00 | 100 | 1020.0 |
| 20260503220459 | 17 | 199 | 8.0 | 0.0 | 0.00 | 0.00 | 0.00 | 100 | 1020.0 |
| 20260503215957 | 17 | 208 | 6.4 | 0.0 | 0.00 | 0.00 | 0.00 | 100 | 1019.9 |
| 20260503215434 | 17 | 222 | 4.8 | 0.0 | 0.00 | 0.00 | 0.00 | 100 | 1020.0 |
| 20260503214930 | 17 | 248 | 0.0 | 0.0 | 0.00 | 0.00 | 0.00 | 100 | 1019.9 |
| 20260503214426 | 17 | 241 | 0.0 | 0.0 | 0.00 | 0.00 | 0.00 | 100 | 1019.8 |
| 20260503213939 | 17 | 246 | 0.0 | 0.0 | 0.00 | 0.00 | 0.00 | 100 | 1019.7 |
| 20260503213436 | 17 | 246 | 1.6 | 0.0 | 0.00 | 0.00 | 0.00 | 100 | 1019.8 |
| 20260503212930 | 17 | 248 | 1.6 | 0.0 | 0.00 | 0.00 | 0.00 | 100 | 1019.6 |
| 20260503212436 | 17 | 242 | 3.2 | 0.0 | 0.00 | 0.00 | 0.00 | 100 | 1019.6 |
| 20260503211926 | 17 | 256 | 3.2 | 0.0 | 0.00 | 0.00 | 0.00 | 100 | 1019.7 |
| 20260503211433 | 17 | 311 | 0.0 | 0.0 | 0.00 | 0.00 | 0.00 | 100 | 1019.7 |
| 20260503210945 | 17 | 20 | 0.0 | 0.0 | 0.00 | 0.00 | 0.00 | 100 | 1019.8 |
| 20260503210440 | 17 | 23 | 0.0 | 0.0 | 0.00 | 0.00 | 0.00 | 100 | 1019.7 |
| 20260503205934 | 17 | 21 | 0.0 | 0.0 | 0.00 | 0.00 | 0.00 | 100 | 1019.7 |
| 20260503205441 | 17 | 20 | 0.0 | 0.0 | 0.00 | 0.00 | 0.00 | 100 | 1019.7 |
| 20260503204954 | 17 | 23 | 0.0 | 0.0 | 0.00 | 0.00 | 0.00 | 100 | 1019.8 |
| 20260503204456 | 17 | 23 | 1.6 | 0.0 | 0.00 | 0.00 | 0.00 | 100 | 1019.8 |
| 20260503203926 | 17 | 24 | 0.0 | 0.0 | 0.00 | 0.00 | 0.00 | 100 | 1019.8 |
| 20260503203436 | 17 | 23 | 3.2 | 0.0 | 0.00 | 0.00 | 0.00 | 100 | 1019.8 |
| 20260503202930 | 17 | 30 | 3.2 | 0.0 | 0.00 | 0.00 | 0.00 | 100 | 1019.8 |
| 20260503202443 | 17 | 9 | 4.8 | 0.0 | 0.00 | 0.00 | 0.00 | 100 | 1019.7 |
| 20260503201936 | 17 | 338 | 6.4 | 0.0 | 0.00 | 0.00 | 0.00 | 100 | 1019.7 |
| 20260503201455 | 17 | 23 | 6.4 | 0.0 | 0.00 | 0.00 | 0.00 | 100 | 1019.7 |
| 20260503200946 | 17 | 27 | 3.2 | 0.0 | 0.00 | 0.00 | 0.00 | 100 | 1019.7 |
| 20260503200435 | 17 | 20 | 8.0 | 0.0 | 0.00 | 0.00 | 0.00 | 100 | 1019.7 |
| 20260503195928 | 17 | 20 | 3.2 | 0.0 | 0.00 | 0.00 | 0.00 | 100 | 1019.7 |
| 20260503195438 | 17 | 329 | 8.0 | 0.0 | 0.00 | 0.00 | 0.00 | 100 | 1019.5 |
| 20260503194949 | 18 | 305 | 6.4 | 0.0 | 0.00 | 0.00 | 0.00 | 100 | 1019.6 |
| 20260503194426 | 17 | 348 | 9.7 | 0.0 | 0.00 | 0.00 | 0.00 | 100 | 1019.7 |
| 20260503193956 | 18 | 13 | 6.4 | 0.0 | 0.00 | 0.00 | 0.00 | 100 | 1019.7 |
| 20260503193425 | 17 | 279 | 3.2 | 0.0 | 0.00 | 0.00 | 0.00 | 100 | 1019.5 |
| 20260503192938 | 17 | 271 | 9.7 | 0.0 | 0.00 | 0.00 | 0.00 | 100 | 1019.6 |
| 20260503192434 | 18 | 317 | 6.4 | 0.0 | 0.00 | 0.00 | 0.00 | 100 | 1019.4 |
| 20260503191941 | 17 | 312 | 6.4 | 0.0 | 0.00 | 0.00 | 0.00 | 100 | 1019.3 |
| 20260503191456 | 17 | 15 | 6.4 | 0.0 | 0.00 | 0.00 | 0.00 | 100 | 1019.3 |
| 20260503190946 | 18 | 330 | 6.4 | 0.0 | 0.00 | 0.00 | 0.00 | 100 | 1019.3 |
| 20260503190438 | 18 | 330 | 6.4 | 0.0 | 0.00 | 0.00 | 0.00 | 100 | 1019.3 |
| 20260503185933 | 18 | 301 | 4.8 | 0.0 | 0.00 | 0.00 | 0.00 | 100 | 1019.3 |
| 20260503185438 | 18 | 310 | 8.0 | 0.0 | 0.00 | 0.00 | 0.00 | 100 | 1019.3 |
| 20260503185013 | 18 | 323 | 9.7 | 0.0 | 0.00 | 0.00 | 0.00 | 100 | 1019.2 |
| 20260503184424 | 18 | 316 | 4.8 | 0.0 | 0.00 | 0.00 | 0.00 | 100 | 1019.2 |
| 20260503183934 | 18 | 291 | 3.2 | 0.0 | 0.00 | 0.00 | 0.00 | 100 | 1019.1 |
| 20260503183445 | 18 | 308 | 3.2 | 0.0 | 0.00 | 0.00 | 0.00 | 100 | 1019.1 |
| 20260503182958 | 18 | 354 | 6.4 | 0.0 | 0.00 | 0.00 | 0.00 | 100 | 1019.1 |
| 20260503182505 | 18 | 47 | 3.2 | 0.0 | 0.00 | 0.00 | 0.00 | 100 | 1019.1 |
| 20260503181937 | 18 | 35 | 1.6 | 0.0 | 0.00 | 0.00 | 0.00 | 100 | 1019.1 |
| 20260503181434 | 18 | 8 | 3.2 | 0.0 | 0.00 | 0.00 | 0.00 | 100 | 1019.2 |
| 20260503181007 | 18 | 26 | 0.0 | 0.0 | 0.00 | 0.00 | 0.00 | 100 | 1019.1 |
| 20260503180455 | 18 | 35 | 0.0 | 0.0 | 0.00 | 0.00 | 0.00 | 100 | 1019.1 |
| 20260503175944 | 18 | 29 | 0.0 | 0.0 | 0.00 | 0.00 | 0.00 | 100 | 1018.8 |
| 20260503175429 | 18 | 40 | 0.0 | 0.0 | 0.00 | 0.00 | 0.00 | 100 | 1018.8 |
| 20260503174956 | 18 | 30 | 0.0 | 0.0 | 0.00 | 0.00 | 0.00 | 100 | 1018.8 |
| 20260503174442 | 18 | 28 | 0.0 | 0.0 | 0.00 | 0.00 | 0.00 | 100 | 1018.8 |
| 20260503173929 | 18 | 23 | 0.0 | 0.0 | 0.00 | 0.00 | 0.00 | 100 | 1018.8 |
| 20260503173444 | 18 | 20 | 0.0 | 0.0 | 0.00 | 0.00 | 0.00 | 100 | 1018.8 |
| 20260503172932 | 18 | 22 | 1.6 | 0.0 | 0.00 | 0.00 | 0.00 | 100 | 1018.6 |
| 20260503172441 | 18 | 318 | 0.0 | 0.0 | 0.00 | 0.00 | 0.00 | 100 | 1018.8 |
| 20260503171944 | 18 | 17 | 3.2 | 0.0 | 0.00 | 0.00 | 0.00 | 100 | 1018.7 |
| 20260503171440 | 18 | 28 | 0.0 | 0.0 | 0.00 | 0.00 | 0.00 | 100 | 1018.6 |
| 20260503170947 | 18 | 41 | 0.0 | 0.0 | 0.00 | 0.00 | 0.00 | 100 | 1018.5 |
| 20260503170438 | 18 | 135 | 1.6 | 0.0 | 0.00 | 0.00 | 0.00 | 1 | 1018.5 |
| 20260503150946 | 20 | 359 | 12.9 | 0.0 | 0.00 | 0.00 | 0.00 | 100 | 1019.1 |
| 20260503150423 | 20 | 244 | 0.0 | 0.0 | 0.00 | 0.00 | 0.00 | 100 | 1019.0 |
| 20260503130952 | 20 | 49 | 1.6 | 0.0 | 0.00 | 0.00 | 0.00 | 100 | 1020.3 |
| 20260503130428 | 20 | 265 | 3.2 | 0.0 | 0.00 | 0.00 | 0.00 | 100 | 1020.4 |
| 20260503110454 | 20 | 321 | 3.2 | 0.0 | 0.00 | 0.00 | 0.00 | 67 | 1020.8 |
| 20260503090438 | 18 | 337 | 0.0 | 0.0 | 0.00 | 0.00 | 0.00 | 70 | 1021.6 |
| 20260503081505 | 19 | 330 | 8.0 | 0.0 | 0.00 | 0.00 | 0.00 | 71 | 1021.5 |
| 20260503080954 | 19 | 337 | 1.6 | 0.0 | 0.00 | 0.00 | 0.00 | 71 | 1021.5 |
| 20260503080435 | 19 | 337 | 4.8 | 0.0 | 0.00 | 0.00 | 0.00 | 72 | 1021.5 |
| 20260503072944 | 18 | 153 | 0.0 | 0.0 | 0.00 | 0.00 | 0.00 | 63 | 1021.8 |
| 20260503072429 | 18 | 146 | 0.0 | 0.0 | 0.00 | 0.00 | 0.00 | 64 | 1021.8 |
| 20260503071940 | 18 | 160 | 3.2 | 0.0 | 0.00 | 0.00 | 0.00 | 66 | 1021.8 |
| 20260503071437 | 18 | 119 | 3.2 | 0.0 | 0.00 | 0.00 | 0.00 | 68 | 1021.8 |
| 20260503070947 | 18 | 112 | 1.6 | 0.0 | 0.00 | 0.00 | 0.00 | 70 | 1021.9 |
| 20260503070444 | 18 | 63 | 0.0 | 0.0 | 0.00 | 0.00 | 0.00 | 70 | 1021.9 |
| 20260503054937 | 15 | 55 | 4.8 | 0.0 | 0.00 | 0.00 | 0.00 | 87 | 1021.9 |
| 20260503054433 | 15 | 47 | 4.8 | 0.0 | 0.00 | 0.00 | 0.00 | 87 | 1021.9 |
| 20260503053941 | 15 | 54 | 3.2 | 0.0 | 0.00 | 0.00 | 0.00 | 88 | 1021.9 |
| 20260503053452 | 14 | 57 | 3.2 | 0.0 | 0.00 | 0.00 | 0.00 | 88 | 1021.9 |
| 20260503052938 | 14 | 61 | 3.2 | 0.0 | 0.00 | 0.00 | 0.00 | 89 | 1022.0 |
| 20260503052428 | 14 | 60 | 4.8 | 0.0 | 0.00 | 0.00 | 0.00 | 90 | 1021.8 |
| 20260503051938 | 13 | 57 | 4.8 | 0.0 | 0.00 | 0.00 | 0.00 | 91 | 1021.8 |